カタログに戻る

FENGYUN 1C DEB

運用中PO
NORAD 30312·DEBRIS·🇨🇳 China

打ち上げ May 10, 1999 から Taiyuan Satellite Launch Center

Loading…

次のパス (今後24時間)

TLE

最新Source: Space-Track

元期: Sep 14, 2026, 06:13 UTC

1 30312U 99025ZZ  26257.25955259  .00004895  00000-0  12787-2 0  9991
2 30312  98.8593 354.7497 0011506 110.3722 275.2942 14.49862202 19077

AllMySatでFENGYUN 1C DEBをリアルタイム追跡

Download on the App Store